Location: El Mouella
(16.4949°N, 9.1594°W)
Time: 14:21:17
(UTC+00:00)

ASC 2 Rocket - Pass Details

Date: 02 June 2020
Orbit: 555 x 2345 km, 24.0° (Epoch: 04 July)

Event Time Altitude Azimuth Distance (km) Brightness Sun altitude
Rises 20:08:17 0° 237° (WSW) 2,822 6.8 -14.1°
Reaches altitude 10° 20:10:22 10° 231° (SW) 2,016 6.0 -14.6°
Maximum altitude 20:14:50 52° 154° (SSE) 944 3.6 -15.5°
Enters shadow 20:19:30 17° 83° (E) 2,213 5.4 -16.5°
